Location: Deuil
(48.9767°N, 2.3272°E)
Time: 03:42:55
(UTC+00:00)

Cosmos 2360 Rocket - Pass Details

Date: 31 May 2022
Orbit: 832 x 846 km, 71.0° (Epoch: 03 July)

Event Time Altitude Azimuth Distance (km) Brightness Sun altitude
Exits shadow 22:00:11 - 211° (SSW) 3,135 4.8 -15.0°
Reaches altitude 10° 22:02:00 10° 212° (SSW) 2,445 4.3 -15.1°
Maximum altitude 22:07:37 79° 299° (WNW) 861 2.3 -15.5°
Drops below altitude 10° 22:13:18 10° 26° (NNE) 2,470 5.2 -15.9°
Sets 22:15:46 0° 28° (NNE) 3,411 6.0 -16.1°
